Location: Unspecified
(0.0000°N, 0.0000°E)
Time: 19:44:30
(UTC+00:00)

CZ-3C DEB - Pass Details

Date: 08 March 2026
Orbit: 1497 x 35067 km, 20.3° (Epoch: 12 June)

Event Time Altitude Azimuth Distance (km) Brightness Sun altitude
Rises 17:30:11 0° 102° (ESE) 33,414 ? 10.1°
Reaches altitude 10° 19:23:03 10° 108° (ESE) 39,272 ? -18.0°
Maximum altitude 22:38:52 24° 115° (ESE) 31,638 ? -66.6°
Drops below altitude 10° 00:14:50 10° 110° (ESE) 19,749 ? -85.3°
Sets 00:32:56 0° 107° (ESE) 17,129 ? -82.8°
